Location: Newark
(35.8833°N, 14.5000°E)
Time: 15:07:28
(UTC+00:00)

Altair - Pass Details

Date: 21 November 2019
Orbit: 1502 x 1682 km, 47.2° (Epoch: 14 December)

Event Time Altitude Azimuth Distance (km) Brightness Sun altitude
Rises 09:27:38 0° 296° (WNW) 4,685 9.7 31.1°
Reaches altitude 10° 09:31:09 10° 286° (WNW) 3,721 9.3 31.4°
Maximum altitude 09:38:48 29° 231° (SW) 2,590 9.2 31.9°
Drops below altitude 10° 09:46:40 10° 176° (S) 3,826 11.0 32.4°
Sets 09:50:23 0° 166° (SSE) 4,836 11.2 32.6°
